EW3182 Weather Reports


Display with metric or nautical units.
time (UTC)temp
F
wind
direction
speed
MPH
gust
MPH
rain 1hr
in
rain 24hr
in
rain mn
in
humidity
%
barometer
mb
20260903163033 85 257 1.0 5.0 0.00 0.00 0.00 74 1011.7
20260903161535 84 104 2.0 7.0 0.00 0.00 0.00 75 1011.7
20260903160027 83 266 0.0 5.0 0.00 0.00 0.00 77 1011.8
20260903154525 81 273 0.0 7.0 0.00 0.00 0.00 78 1011.8
20260903153023 81 113 1.0 8.0 0.00 0.00 0.00 78 1011.8
20260903151523 81 274 0.0 3.0 0.00 0.00 0.00 78 1011.7
20260903150038 80 296 1.0 4.0 0.00 0.00 0.00 79 1011.8
20260903144522 80 328 0.0 3.0 0.00 0.00 0.00 79 1011.8
20260903143035 79 132 0.0 2.0 0.00 0.00 0.00 79 1012.0
20260903141524 79 126 0.0 5.0 0.00 0.00 0.00 79 1011.9
20260903140017 78 248 0.0 4.0 0.00 0.00 0.00 79 1011.9
20260903134535 78 295 0.0 2.0 0.00 0.00 0.00 79 1011.7
20260903133017 77 126 0.0 3.0 0.00 0.00 0.00 79 1011.8
20260903131514 77 111 0.0 1.0 0.00 0.00 0.00 79 1011.5
20260903130011 0 0.0 0.0 0.00 0.00 0.00 1011.4
20260903124507 0 0.0 0.0 0.00 0.00 0.00 1011.6
20260903123002 0 0.0 0.0 0.00 0.00 0.00 1011.3
20260903121557 0 0.0 0.0 0.00 0.00 0.00 1011.2
20260903120055 0 0.0 0.0 0.00 0.00 0.00 1011.2
20260903114550 0 0.0 0.0 0.00 0.00 0.00 1011.2
20260903113046 0 0.0 0.0 0.00 0.00 0.00 1011.2
20260903111540 0 0.0 0.0 0.00 0.00 0.00 1011.2
20260903110036 0 0.0 0.0 0.00 0.00 0.00 1011.0
20260903104532 0 0.0 0.0 0.00 0.00 0.00 1011.0
20260903103029 0 0.0 0.0 0.00 0.00 0.00 1010.9
20260903101522 0 0.0 0.0 0.00 0.00 0.00 1010.9
20260903100018 0 0.0 0.0 0.00 0.00 0.00 1010.8
20260903094517 0 0.0 0.0 0.00 0.00 0.00 1010.7
20260903093016 0 0.0 0.0 0.00 0.00 0.00 1010.9
20260903091505 0 0.0 0.0 0.00 0.00 0.00 1010.9
20260903090002 76 142 0.0 0.0 0.00 0.00 0.00 79 1010.9
20260903084601 76 142 0.0 0.0 0.00 0.00 0.00 79 1010.8
20260903083057 77 142 0.0 0.0 0.00 0.00 0.00 78 1010.7
20260903081556 77 143 0.0 0.0 0.00 0.00 0.00 78 1010.7
20260903080057 77 142 0.0 0.0 0.00 0.00 0.00 78 1010.9
20260903074554 77 142 0.0 0.0 0.00 0.00 0.00 78 1010.8
20260903073100 77 141 0.0 0.0 0.00 0.00 0.00 78 1010.9
20260903071553 78 142 0.0 0.0 0.00 0.00 0.00 77 1010.8
20260903070048 79 142 0.0 0.0 0.00 0.00 0.00 76 1010.7
20260903064544 79 143 0.0 1.0 0.00 0.00 0.00 74 1010.9
20260903063043 79 143 0.0 2.0 0.00 0.00 0.00 74 1011.1
20260903061539 80 4 0.0 3.0 0.00 0.00 0.00 73 1011.1
20260903060039 80 78 1.0 4.0 0.00 0.00 0.00 72 1011.4
20260903054534 81 111 0.0 3.0 0.00 0.00 0.00 71 1011.5
20260903053033 81 105 0.0 6.0 0.00 0.00 0.00 69 1011.4
20260903051529 82 307 0.0 5.0 0.00 0.00 0.00 68 1011.3
20260903050026 82 52 0.0 7.0 0.00 0.00 0.00 67 1011.3
20260903044525 83 111 1.0 5.0 0.00 0.00 0.00 65 1011.2
20260903043024 84 121 0.0 3.0 0.00 0.00 0.00 64 1011.2
20260903041524 84 94 2.0 8.0 0.00 0.00 0.00 62 1011.2
20260903040024 85 129 0.0 5.0 0.00 0.00 0.00 62 1011.2
20260903034523 85 92 0.0 4.0 0.00 0.00 0.00 61 1011.2
20260903033022 86 249 0.0 5.0 0.00 0.00 0.00 60 1011.1
20260903031531 87 166 0.0 6.0 0.00 0.00 0.00 59 1011.0
20260903030021 87 260 1.0 6.0 0.00 0.00 0.00 57 1010.9
20260903024520 88 197 1.0 6.0 0.00 0.00 0.00 56 1010.7
20260903023025 89 215 1.0 6.0 0.00 0.00 0.00 53 1010.4
20260903021536 90 167 0.0 4.0 0.00 0.00 0.00 51 1010.2
20260903020022 90 226 0.0 6.0 0.00 0.00 0.00 50 1010.0
20260903014518 91 221 1.0 6.0 0.00 0.00 0.00 49 1009.8
20260903013017 91 121 0.0 5.0 0.00 0.00 0.00 50 1009.7
20260903011521 92 98 0.0 4.0 0.00 0.00 0.00 50 1009.5
20260903010019 92 127 1.0 5.0 0.00 0.00 0.00 49 1009.3
20260903004526 92 129 2.0 6.0 0.00 0.00 0.00 48 1009.4
20260903003015 93 136 1.0 4.0 0.00 0.00 0.00 48 1009.4
20260903001514 94 109 1.0 9.0 0.00 0.00 0.00 48 1009.3
20260903000014 95 290 4.0 11.0 0.00 0.00 0.00 45 1009.3
20260902234513 96 98 1.0 4.0 0.00 0.00 0.00 41 1009.0
20260902233017 96 135 2.0 6.0 0.00 0.00 0.00 40 1009.0
20260902231512 97 118 0.0 3.0 0.00 0.00 0.00 40 1009.0
20260902230012 97 91 2.0 6.0 0.00 0.00 0.00 40 1008.9
20260902224510 97 294 0.0 4.0 0.00 0.00 0.00 39 1009.1
20260902223009 97 116 0.0 3.0 0.00 0.00 0.00 39 1009.1
20260902221508 98 98 0.0 3.0 0.00 0.00 0.00 40 1009.2
20260902220009 98 115 0.0 4.0 0.00 0.00 0.00 40 1009.4
20260902214509 98 95 0.0 4.0 0.00 0.00 0.00 38 1009.5
20260902213005 99 102 0.0 6.0 0.00 0.00 0.00 38 1009.6
20260902211501 100 119 0.0 3.0 0.00 0.00 0.00 38 1009.9
20260902204559 101 90 0.0 3.0 0.00 0.00 0.00 38 1010.1
20260902203104 101 129 0.0 4.0 0.00 0.00 0.00 38 1010.4
20260902201553 100 74 0.0 5.0 0.00 0.00 0.00 39 1010.5
20260902200051 100 127 1.0 5.0 0.00 0.00 0.00 40 1010.8
20260902194548 100 118 0.0 5.0 0.00 0.00 0.00 39 1011.0
20260902193055 100 91 0.0 1.0 0.00 0.00 0.00 41 1011.3
20260902191548 100 77 0.0 1.0 0.00 0.00 0.00 41 1011.6
20260902190039 98 134 1.0 4.0 0.00 0.00 0.00 43 1011.8
20260902184536 97 160 1.0 9.0 0.00 0.00 0.00 41 1012.0
20260902183033 98 91 0.0 4.0 0.00 0.00 0.00 42 1012.1
20260902181530 98 91 0.0 4.0 0.00 0.00 0.00 44 1012.6
20260902180025 97 96 0.0 2.0 0.00 0.00 0.00 44 1012.9
20260902174522 96 156 1.0 4.0 0.00 0.00 0.00 44 1013.1
20260902173020 95 278 0.0 3.0 0.00 0.00 0.00 47 1013.4
20260902171519 95 191 0.0 4.0 0.00 0.00 0.00 46 1013.6
20260902170017 94 97 0.0 3.0 0.00 0.00 0.00 48 1013.8
20260902164513 94 136 0.0 1.0 0.00 0.00 0.00 49 1013.9